Location: Unspecified
(35.6961°N, 0.0000°E)
Time: 00:03:51
(UTC+00:00)

Explorer 11/Cluster Stage 4 - Pass Details

Date: 31 May 2019
Orbit: 467 x 1260 km, 28.8° (Epoch: 17 June)

Event Time Altitude Azimuth Distance (km) Brightness Sun altitude
Rises 20:33:18 0° 197° (SSW) 4,172 10.0 -14.8°
Enters shadow 20:37:48 - 175° (S) 3,325 9.3 -15.4°
Reaches altitude 10° 20:38:37 10° 169° (S) 3,223 - -15.5°
Maximum altitude 20:41:25 12° 149° (SSE) 3,051 - -16.0°
Drops below altitude 10° 20:44:10 10° 129° (SE) 3,172 - -16.4°
Sets 20:49:15 0° 101° (E) 4,027 - -17.1°
